Weather History for KP68 - September, 2012

Change the Weather History Date:

Sunday, September 30, 2012

  Actual Average Record
Temperature  
Mean Temperature 62 °F 52 °F  
Max Temperature 81 °F 72 °F 91 °F (2010)
Min Temperature 42 °F 33 °F 19 °F (1995)
Degree Days  
Heating Degree Days 3 13  
Month to date heating degree days 83 217  
Since 1 July heating degree days 83 264  
Cooling Degree Days 0 0  
Month to date cooling degree days 21 11  
Year to date cooling degree days 529 288  
Growing Degree Days 12 (Base 50)    
Moisture  
Dew Point 29 °F    
Average Humidity 38    
Maximum Humidity 62    
Minimum Humidity 13    
Precipitation  
Precipitation 0.00 in 0.02 in 0.27 in (1982)
Month to date precipitation 0.81 0.58  
Year to date precipitation 5.47 6.87  
Sea Level Pressure  
Sea Level Pressure 30.16 in    
Wind  
Wind Speed 7 mph (South)    
Max Wind Speed 16 mph    
Max Gust Speed 22 mph    
T = Trace of Precipitation, MM = Missing Value Source: NWS Daily Summary

Daily Weather History Graph

Daily Weather History Graph

Search for Another Location

Airport or City:

Trip Planner

Search our weather history database for the weather conditions in past years. The results will help you decide how hot, cold, wet, or windy it might be!

Date:

Astronomy

Sep. 30, 2012 Rise Set
Actual Time 6:39 AM PDT 6:27 PM PDT
Civil Twilight 6:12 AM PDT 6:53 PM PDT
Nautical Twilight 5:41 AM PDT 7:25 PM PDT
Astronomical Twilight 5:10 AM PDT 7:56 PM PDT
Moon 6:33 PM PDT (9/30) 7:14 AM PDT (9/30)
Length of Visible Light 12h 41m
Length of Day
11h 47m
Full, 100% of the Moon is Illuminated
Sep 30
Full
Oct 8
Last Quarter
Oct 15
New
Oct 21
First Quarter
Oct 29
Full

Hourly Weather History & Observations

Time (PDT) Temp. Windchill Dew Point Humidity Pressure Visibility Wind Dir Wind Speed Gust Speed Precip Events Conditions
12:53 AM 50.0 °F - 32.0 °F 50% 30.11 in - South 9.2 mph - N/A   Unknown
1:53 AM 48.9 °F - 32.0 °F 52% 30.12 in - South 9.2 mph - N/A   Unknown
2:53 AM 51.1 °F - 30.0 °F 44% 30.11 in - SSW 12.7 mph - N/A   Unknown
3:53 AM 50.0 °F - 30.0 °F 46% 30.12 in - SSW 11.5 mph - N/A   Unknown
4:53 AM 46.0 °F 41.4 °F 30.0 °F 54% 30.14 in - SW 9.2 mph - N/A   Unknown
5:53 AM 43.0 °F 38.8 °F 30.0 °F 60% 30.17 in - SW 6.9 mph - N/A   Unknown
6:53 AM 44.1 °F 40.1 °F 30.0 °F 58% 30.23 in - South 6.9 mph - N/A   Unknown
7:53 AM 50.0 °F - 32.0 °F 50% 30.24 in - South 3.5 mph - N/A   Unknown
8:53 AM 59.0 °F - 32.0 °F 36% 30.23 in - SW 3.5 mph - N/A   Unknown
9:53 AM 66.0 °F - 30.9 °F 27% 30.22 in - SSW 3.5 mph - N/A   Unknown
10:53 AM 72.0 °F - 28.0 °F 20% 30.20 in - Calm Calm - N/A   Unknown
11:53 AM 75.9 °F - 28.0 °F 17% 30.18 in - North 4.6 mph - N/A   Unknown
12:53 PM 78.1 °F - 26.1 °F 15% 30.16 in - NNE 11.5 mph - N/A   Unknown
1:53 PM 79.0 °F - 27.0 °F 15% 30.14 in - Variable 5.8 mph 18.4 mph N/A   Unknown
2:53 PM 80.1 °F - 26.1 °F 14% 30.11 in - ENE 9.2 mph - N/A   Unknown
3:53 PM 80.1 °F - 25.0 °F 13% 30.11 in - NE 12.7 mph - N/A   Unknown
4:53 PM 80.1 °F - 26.1 °F 14% 30.11 in - North 11.5 mph - N/A   Unknown
5:53 PM 77.0 °F - 27.0 °F 16% 30.14 in - NE 8.1 mph - N/A   Unknown
6:53 PM 63.0 °F - 30.0 °F 29% 30.18 in - Calm Calm - N/A   Unknown
7:53 PM 57.9 °F - 30.0 °F 35% 30.21 in - South 4.6 mph - N/A   Unknown
8:53 PM 53.1 °F - 30.0 °F 41% 30.21 in - SSW 3.5 mph - N/A   Unknown
9:53 PM 51.1 °F - 30.9 °F 46% 30.19 in - SSW 9.2 mph - N/A   Unknown
10:53 PM 48.9 °F - 30.9 °F 50% 30.17 in - Calm Calm - N/A   Unknown
11:53 PM 51.1 °F - 28.0 °F 41% 30.16 in - South 5.8 mph - N/A   Unknown